This demonstration page uses our WeatherBlox Daily Observations layout. Learn more.

Left ArrowRight Arrow

39.92423, -83.80882

Hourly Observations for January 18, 2017

Temp ( °F °C ) Dew Point ( °F °C ) Humidity (%) Winds ( mph kmh ) Pressure ( in mb ) Visibility ( mi km ) Precip ( " mm )
12:04 am 00:04 Cloudy 43 6 41 5 93 93 W 16 26 30.03 1017 10 16.0934 0 0
12:56 am 00:56 Cloudy 43 6.1 40 4.4 89 89 W 15 24 30.01 1016 10 16.0934 0 0
1:18 am 01:18 Cloudy with Light Rain 43 6 39 4 87 87 W 12 19 30.03 1017 3 4.82802 0.001 0.001
1:56 am 01:56 Cloudy with Light Rain 41 5 39 3.9 93 93 WNW 14 22 30.02 1017 6 9.65604 0.01 0.254
2:56 am 02:56 Cloudy with Light Rain 39 3.9 38 3.3 96 96 WNW 13 20 30.05 1018 10 16.0934 0.001 0.001
3:26 am 03:26 Cloudy 39 4 37 3 93 93 W 15 24 30.06 1018 10 16.0934 0.001 0.001
3:56 am 03:56 Cloudy 38 3.3 36 2.2 93 93 W 16 26 30.07 1018 10 16.0934 0.001 0.001
4:37 am 04:37 Cloudy 37 3 34 1 87 87 W 15 24 30.12 1020 10 16.0934 0.001 0.001
4:56 am 04:56 Cloudy 37 2.8 34 1.1 89 89 WNW 13 20 30.09 1019 10 16.0934 0.001 0.001
5:56 am 05:56 Cloudy 36 2.2 33 0.6 89 89 W 15 24 30.11 1020 10 16.0934 0 0
6:25 am 06:25 Cloudy 36 2 34 1 93 93 W 13 20 30.15 1021 10 16.0934 0 0
6:56 am 06:56 Cloudy 36 2.2 33 0.6 89 89 W 12 19 30.13 1020 10 16.0934 0 0
7:03 am 07:03 Cloudy 36 2 34 1 93 93 W 9 15 30.18 1022 10 16.0934 0 0
7:20 am 07:20 Cloudy 36 2 34 1 93 93 W 13 20 30.18 1022 10 16.0934 0 0
7:56 am 07:56 Cloudy 36 2.2 33 0.6 89 89 W 10 17 30.14 1021 10 16.0934 0 0
8:56 am 08:56 Cloudy 36 2.2 34 1.1 93 93 W 12 19 30.16 1021 10 16.0934 0 0
9:26 am 09:26 Cloudy 37 3 34 1 87 87 W 10 17 30.21 1023 10 16.0934 0 0
9:56 am 09:56 Cloudy 37 2.8 34 1.1 89 89 WNW 12 19 30.18 1022 10 16.0934 0 0
10:20 am 10:20 Cloudy 37 3 34 1 87 87 W 16 26 30.21 1023 10 16.0934 0 0
10:51 am 10:51 Cloudy 37 3 34 1 87 87 WNW 16 26 30.24 1024 10 16.0934 0 0
10:56 am 10:56 Cloudy 37 2.8 34 1.1 89 89 W 13 20 30.2 1023 10 16.0934 0 0
11:56 am 11:56 Cloudy 37 2.8 34 1.1 89 89 W 9 15 30.2 1023 10 16.0934 0 0
12:56 pm 12:56 Cloudy 37 2.8 35 1.7 93 93 W 10 17 30.18 1022 10 16.0934 0 0
1:56 pm 13:56 Cloudy 38 3.3 35 1.7 89 89 W 8 13 30.17 1022 10 16.0934 0 0
2:56 pm 14:56 Cloudy 37 2.8 35 1.7 93 93 WSW 10 17 30.17 1022 9 14.48406 0 0
3:56 pm 15:56 Cloudy 38 3.3 36 2.2 93 93 W 10 17 30.14 1021 9 14.48406 0 0
4:56 pm 16:56 Cloudy 38 3.3 35 1.7 89 89 SW 8 13 30.14 1021 10 16.0934 0 0
5:56 pm 17:56 Cloudy 38 3.3 35 1.7 89 89 SW 9 15 30.15 1021 10 16.0934 0 0
6:56 pm 18:56 Cloudy 38 3.3 36 2.2 93 93 WSW 9 15 30.15 1021 10 16.0934 0 0
7:56 pm 19:56 Cloudy 38 3.3 36 2.2 93 93 WSW 9 15 30.15 1021 10 16.0934 0 0
8:56 pm 20:56 Cloudy 38 3.3 36 2.2 93 93 WSW 10 17 30.17 1022 10 16.0934 0 0
9:56 pm 21:56 Cloudy 38 3.3 36 2.2 93 93 SW 10 17 30.16 1021 10 16.0934 0 0
10:31 pm 22:31 Cloudy 37 3 36 2 93 93 SW 10 17 30.18 1022 10 16.0934 0 0
10:56 pm 22:56 Cloudy 37 2.8 36 2.2 96 96 W 7 11 30.14 1021 10 16.0934 0 0
11:56 pm 23:56 Cloudy 37 2.8 36 2.2 96 96 SW 7 11 30.14 1021 10 16.0934 0 0

Powered by AerisWeather